Home > Weather > Tönisvorst > Past weeks

Flag for Germany Weather for the Past 2 Weeks in Tönisvorst, North Rhine-Westphalia, Germany

Now
50 °F

Passing clouds.


Feels Like: 46 °F
Forecast: 45 / 51 °F
Wind: 12 mph from Southwest

Location: Monchengladbach Airport

Current Time: Feb 6, 2016 at 12:47:31 PM

Latest Report: Feb 6, 2016 at 11:50 AM


Visibility: N/A

Pressure: 29.86 "Hg

Humidity: 82%

Dew point: 45 °F

Location of TönisvorstLocation

Historic Weather in Tönisvorst — Graph

°F

Tönisvorst Temperature Yesterday

Maximum temperature yesterday: 50 °F (at 12:50 PM)
Minimum temperature yesterday: 41 °F (at 7:50 AM)
Average temperature yesterday: 48 °F

High & Low Weather Summary for the Past Weeks

 TemperatureHumidityPressure
High57 °F (Jan 25, 1:50 PM)100% (Jan 22, 8:20 PM)30.54 "Hg (Jan 22, 8:20 PM)
Low30 °F (Jan 22, 11:20 AM)54% (Jan 28, 1:50 PM)29.71 "Hg (Jan 30, 12:50 PM)
Average46 °F91%30.13 "Hg
* Reported Jan 22 11:20 AM — Feb 6 11:50 AM, Tönisvorst, Weather by CustomWeather, © 2016

Note: Actual official high and low records may vary slightly from our data, if they occured in-between our weather recording intervals... More about our weather records

Advertising

Tönisvorst Weather History for the Previous 24 Hours

 ConditionsComfort  
Time TempWeatherWind HumidityBarometerVisibility
11:50 AM
Sat, Feb 6
50 °FPassing clouds.12 mph82%29.86 "HgN/A
11:20 AM50 °FPassing clouds.8 mph88%29.89 "HgN/A
10:50 AM48 °FPassing clouds.7 mph94%29.86 "HgN/A
10:20 AM46 °FPassing clouds.7 mph100%29.89 "HgN/A
9:50 AM46 °FPassing clouds.8 mph93%29.89 "HgN/A
9:20 AM45 °FPassing clouds.7 mph100%29.89 "HgN/A
8:50 AM45 °FPassing clouds.5 mph100%29.92 "HgN/A
8:20 AM45 °FScattered clouds.6 mph100%29.92 "HgN/A
7:50 AM45 °FScattered clouds.6 mph100%29.92 "HgN/A
8:20 PM
Fri, Feb 5
50 °FPassing clouds.7 mph100%30.12 "HgN/A
7:50 PM50 °FPassing clouds.6 mph100%30.12 "HgN/A
7:20 PM50 °FPassing clouds.5 mph100%30.12 "HgN/A
6:50 PM50 °FPassing clouds.7 mph100%30.12 "HgN/A
6:20 PM48 °FPartly cloudy.3 mph100%30.15 "HgN/A
5:50 PM48 °FPartly cloudy.3 mph100%30.15 "HgN/A
5:20 PM50 °FPassing clouds.5 mph100%30.15 "Hg5 mi
4:50 PM50 °FPartly cloudy.5 mph100%30.15 "HgN/A
4:20 PM50 °FPassing clouds.6 mph100%30.15 "HgN/A
3:50 PM50 °FPassing clouds.9 mph100%30.18 "HgN/A
3:20 PM50 °FPassing clouds.10 mph100%30.18 "HgN/A
2:50 PM50 °FPartly cloudy.8 mph100%30.18 "Hg4 mi
2:20 PM50 °FFog.8 mph100%30.18 "Hg3 mi
1:50 PM50 °FDrizzle. Fog.9 mph100%30.18 "Hg3 mi
1:20 PM50 °FDrizzle. Fog.7 mph100%30.21 "Hg3 mi
12:50 PM50 °FDrizzle. Fog.12 mph100%30.21 "Hg2 mi
12:20 PM48 °FFog.9 mph100%30.21 "Hg2 mi
Weather by CustomWeather, © 2016

See weather overviewHow to use our weather pages